GLO1170 SBGR-SBFI

Flight info

Callsign GLO1170
Flight time 1h 20m
Altitude 38000
Route ASETA UZ152 UPORU
Aircraft B738/M-SDFGIKLORWXY/LB1

Departure

Time 2026-04-24 23:54
Airport São Paulo/Guarulhos–Governor André Franco Montoro International Airport (SBGR)

Arrival

Time 2026-04-25 01:15
Airport Cataratas International Airport (SBFI)
Time Latitude Longitude Altitude Speed Heading
2026-04-24 23:30 -23.42774 -46.48397 2466 ft 0 kts 88°
2026-04-24 23:48 -23.42774 -46.48403 2466 ft 2 kts 81°
2026-04-24 23:48 -23.42778 -46.48419 2466 ft 2 kts 80°
2026-04-24 23:48 -23.42780 -46.48434 2466 ft 2 kts 81°
2026-04-24 23:48 -23.42782 -46.48451 2466 ft 2 kts 80°
2026-04-24 23:49 -23.42784 -46.48462 2466 ft 1 kts 115°
2026-04-24 23:49 -23.42777 -46.48468 2466 ft 0 kts 167°
2026-04-24 23:49 -23.42772 -46.48469 2466 ft 0 kts 177°
2026-04-24 23:49 -23.42769 -46.48469 2466 ft 0 kts 174°
2026-04-24 23:51 -23.42772 -46.48469 2466 ft 1 kts 179°
2026-04-24 23:52 -23.42810 -46.48479 2466 ft 9 kts 194°
2026-04-24 23:52 -23.42891 -46.48488 2466 ft 13 kts 180°
2026-04-24 23:52 -23.43000 -46.48488 2466 ft 16 kts 179°
2026-04-24 23:52 -23.43120 -46.48462 2465 ft 18 kts 163°
2026-04-24 23:53 -23.43244 -46.48421 2465 ft 14 kts 163°
2026-04-24 23:53 -23.43348 -46.48386 2465 ft 16 kts 161°
2026-04-24 23:53 -23.43419 -46.48314 2465 ft 15 kts 87°
2026-04-24 23:53 -23.43375 -46.48144 2466 ft 46 kts 74°
2026-04-24 23:54 -23.43218 -46.47565 2466 ft 112 kts 74°
2026-04-24 23:54 -23.42939 -46.46530 2467 ft 167 kts 73°
2026-04-24 23:54 -23.42572 -46.45177 2651 ft 198 kts 73°
2026-04-24 23:54 -23.42172 -46.43788 3551 ft 191 kts 72°
2026-04-24 23:55 -23.41754 -46.42411 4071 ft 206 kts 71°
2026-04-24 23:55 -23.41286 -46.40851 4595 ft 219 kts 71°
2026-04-24 23:55 -23.40807 -46.39229 5054 ft 234 kts 71°
2026-04-24 23:55 -23.40312 -46.37482 5554 ft 247 kts 74°
2026-04-24 23:56 -23.40136 -46.35613 6127 ft 260 kts 94°
2026-04-24 23:56 -23.40608 -46.33644 6621 ft 277 kts 109°
2026-04-24 23:56 -23.41329 -46.31663 7249 ft 286 kts 111°
2026-04-24 23:56 -23.42096 -46.29643 7828 ft 298 kts 114°
2026-04-24 23:57 -23.43205 -46.27661 8301 ft 314 kts 129°
2026-04-24 23:57 -23.44895 -46.26128 8742 ft 329 kts 153°
2026-04-24 23:57 -23.47147 -46.25418 9227 ft 341 kts 176°
2026-04-24 23:57 -23.49537 -46.25572 9801 ft 350 kts 189°
2026-04-24 23:58 -23.51905 -46.26191 10501 ft 354 kts 201°
2026-04-24 23:58 -23.54026 -46.27505 11243 ft 355 kts 220°
2026-04-24 23:58 -23.55683 -46.29522 11977 ft 358 kts 237°
2026-04-24 23:58 -23.56791 -46.31906 12724 ft 360 kts 250°
2026-04-24 23:59 -23.57225 -46.34606 13434 ft 364 kts 271°
2026-04-24 23:59 -23.56954 -46.37336 14185 ft 367 kts 279°
2026-04-24 23:59 -23.56495 -46.40053 14942 ft 369 kts 281°
2026-04-24 23:59 -23.55992 -46.42784 15656 ft 373 kts 281°
2026-04-25 00:00 -23.55489 -46.45564 16413 ft 375 kts 281°
2026-04-25 00:00 -23.55002 -46.48375 17096 ft 378 kts 280°
2026-04-25 00:00 -23.54533 -46.51194 17758 ft 382 kts 280°
2026-04-25 00:00 -23.54075 -46.54023 18405 ft 385 kts 279°
2026-04-25 00:01 -23.53610 -46.56933 19060 ft 389 kts 279°
2026-04-25 00:01 -23.53148 -46.59840 19706 ft 392 kts 279°
2026-04-25 00:01 -23.52682 -46.62771 20374 ft 394 kts 279°
2026-04-25 00:01 -23.52213 -46.65715 20991 ft 397 kts 279°
2026-04-25 00:02 -23.51738 -46.68696 21575 ft 400 kts 279°
2026-04-25 00:02 -23.51258 -46.71699 22183 ft 403 kts 279°
2026-04-25 00:02 -23.50781 -46.74685 22752 ft 405 kts 279°
2026-04-25 00:02 -23.50293 -46.77729 23345 ft 407 kts 279°
2026-04-25 00:03 -23.49801 -46.80789 23845 ft 411 kts 279°
2026-04-25 00:03 -23.49308 -46.83861 24389 ft 414 kts 279°
2026-04-25 00:03 -23.48812 -46.86942 24900 ft 417 kts 279°
2026-04-25 00:03 -23.48312 -46.90043 25409 ft 420 kts 279°
2026-04-25 00:04 -23.47804 -46.93194 25983 ft 420 kts 279°
2026-04-25 00:04 -23.47304 -46.96286 26713 ft 416 kts 279°
2026-04-25 00:04 -23.46805 -46.99363 27254 ft 417 kts 279°
2026-04-25 00:04 -23.46297 -47.02507 27462 ft 426 kts 279°
2026-04-25 00:05 -23.45772 -47.05747 27594 ft 437 kts 279°
2026-04-25 00:05 -23.45240 -47.09026 27716 ft 447 kts 279°
2026-04-25 00:05 -23.44695 -47.12377 28171 ft 449 kts 279°
2026-04-25 00:05 -23.44157 -47.15675 28826 ft 445 kts 279°
2026-04-25 00:06 -23.43620 -47.18959 29528 ft 442 kts 279°
2026-04-25 00:06 -23.43082 -47.22248 30168 ft 440 kts 278°
2026-04-25 00:06 -23.42547 -47.25514 30793 ft 438 kts 278°
2026-04-25 00:06 -23.42012 -47.28775 31301 ft 438 kts 278°
2026-04-25 00:07 -23.41483 -47.32000 31804 ft 438 kts 278°
2026-04-25 00:07 -23.40949 -47.35251 32367 ft 436 kts 278°
2026-04-25 00:07 -23.40416 -47.38490 32995 ft 433 kts 278°
2026-04-25 00:07 -23.39890 -47.41681 33583 ft 430 kts 278°
2026-04-25 00:08 -23.39362 -47.44886 34227 ft 427 kts 278°
2026-04-25 00:08 -23.38846 -47.48008 34784 ft 424 kts 278°
2026-04-25 00:08 -23.38321 -47.51186 35321 ft 422 kts 278°
2026-04-25 00:08 -23.37806 -47.54303 35803 ft 421 kts 278°
2026-04-25 00:09 -23.37287 -47.57436 36263 ft 420 kts 278°
2026-04-25 00:09 -23.36768 -47.60567 36670 ft 420 kts 278°
2026-04-25 00:09 -23.36249 -47.63689 37099 ft 419 kts 278°
2026-04-25 00:09 -23.35726 -47.66832 37542 ft 417 kts 278°
2026-04-25 00:10 -23.35196 -47.70012 37934 ft 417 kts 278°
2026-04-25 00:10 -23.34674 -47.73148 38117 ft 419 kts 278°
2026-04-25 00:10 -23.33616 -47.79485 38115 ft 417 kts 278°
2026-04-25 00:11 -23.32746 -47.84690 38113 ft 418 kts 278°
2026-04-25 00:11 -23.31514 -47.92028 38113 ft 416 kts 278°
2026-04-25 00:12 -23.30455 -47.98313 38112 ft 417 kts 278°
2026-04-25 00:12 -23.29408 -48.04615 38115 ft 426 kts 277°
2026-04-25 00:13 -23.28991 -48.11122 38111 ft 433 kts 266°
2026-04-25 00:13 -23.29627 -48.17658 38113 ft 431 kts 261°
2026-04-25 00:14 -23.30591 -48.24078 38116 ft 429 kts 259°
2026-04-25 00:14 -23.31592 -48.30501 38112 ft 430 kts 260°
2026-04-25 00:15 -23.32570 -48.36935 38110 ft 431 kts 259°
2026-04-25 00:15 -23.33995 -48.43291 38117 ft 429 kts 252°
2026-04-25 00:16 -23.36083 -48.49366 38115 ft 430 kts 249°
2026-04-25 00:16 -23.38377 -48.55456 38110 ft 430 kts 248°
2026-04-25 00:17 -23.40659 -48.61499 38111 ft 428 kts 248°
2026-04-25 00:17 -23.42936 -48.67586 38107 ft 428 kts 249°
2026-04-25 00:18 -23.45188 -48.73654 38117 ft 425 kts 249°
2026-04-25 00:18 -23.47400 -48.79646 38113 ft 427 kts 249°
2026-04-25 00:19 -23.49620 -48.85677 38108 ft 427 kts 249°
2026-04-25 00:19 -23.51847 -48.91734 38114 ft 427 kts 249°
2026-04-25 00:20 -23.54072 -48.97789 38114 ft 425 kts 249°
2026-04-25 00:20 -23.56263 -49.03765 38112 ft 426 kts 249°
2026-04-25 00:21 -23.58484 -49.09843 38113 ft 426 kts 249°
2026-04-25 00:21 -23.60675 -49.15834 38109 ft 425 kts 249°
2026-04-25 00:22 -23.62880 -49.21867 38104 ft 427 kts 249°
2026-04-25 00:22 -23.65064 -49.27850 38107 ft 425 kts 249°
2026-04-25 00:23 -23.67251 -49.33861 38106 ft 425 kts 249°
2026-04-25 00:23 -23.69438 -49.39884 38102 ft 426 kts 249°
2026-04-25 00:24 -23.71622 -49.45904 38100 ft 425 kts 249°
2026-04-25 00:24 -23.73787 -49.51881 38100 ft 424 kts 249°
2026-04-25 00:25 -23.75966 -49.57905 38100 ft 424 kts 249°
2026-04-25 00:25 -23.78123 -49.63886 38100 ft 423 kts 249°
2026-04-25 00:26 -23.80304 -49.69946 38096 ft 425 kts 250°
2026-04-25 00:26 -23.82470 -49.75972 38100 ft 423 kts 250°
2026-04-25 00:27 -23.84622 -49.81966 38096 ft 423 kts 250°
2026-04-25 00:27 -23.86758 -49.87925 38096 ft 423 kts 250°
2026-04-25 00:28 -23.88888 -49.93869 38098 ft 424 kts 250°
2026-04-25 00:28 -23.91065 -49.99954 38090 ft 424 kts 250°
2026-04-25 00:29 -23.93219 -50.05998 38097 ft 424 kts 250°
2026-04-25 00:29 -23.95367 -50.12028 38100 ft 424 kts 250°
2026-04-25 00:30 -23.97527 -50.18109 38107 ft 425 kts 250°
2026-04-25 00:30 -23.99661 -50.24119 38118 ft 423 kts 250°
2026-04-25 00:31 -24.01792 -50.30132 38130 ft 422 kts 250°
2026-04-25 00:31 -24.03904 -50.36122 38134 ft 423 kts 250°
2026-04-25 00:32 -24.06024 -50.42141 38138 ft 422 kts 250°
2026-04-25 00:32 -24.08154 -50.48190 38137 ft 422 kts 250°
2026-04-25 00:33 -24.10271 -50.54210 38134 ft 423 kts 250°
2026-04-25 00:33 -24.12397 -50.60263 38126 ft 422 kts 250°
2026-04-25 00:34 -24.14509 -50.66281 38124 ft 423 kts 251°
2026-04-25 00:34 -24.16625 -50.72324 38122 ft 421 kts 250°
2026-04-25 00:35 -24.18714 -50.78298 38122 ft 420 kts 250°
2026-04-25 00:35 -24.20840 -50.84386 38122 ft 423 kts 251°
2026-04-25 00:36 -24.22933 -50.90388 38130 ft 421 kts 250°
2026-04-25 00:36 -24.25018 -50.96369 38132 ft 417 kts 251°
2026-04-25 00:37 -24.27072 -51.02273 38133 ft 417 kts 251°
2026-04-25 00:37 -24.29151 -51.08271 38132 ft 417 kts 250°
2026-04-25 00:38 -24.31022 -51.13679 38128 ft 416 kts 250°
2026-04-25 00:38 -24.33075 -51.19624 38124 ft 416 kts 250°
2026-04-25 00:39 -24.35096 -51.25484 38126 ft 415 kts 251°
2026-04-25 00:39 -24.37137 -51.31414 38123 ft 415 kts 251°
2026-04-25 00:40 -24.39188 -51.37380 38116 ft 416 kts 251°
2026-04-25 00:40 -24.41224 -51.43306 38109 ft 415 kts 251°
2026-04-25 00:41 -24.43248 -51.49209 38100 ft 414 kts 251°
2026-04-25 00:41 -24.45271 -51.55115 38097 ft 414 kts 251°
2026-04-25 00:42 -24.47301 -51.61055 38103 ft 416 kts 251°
2026-04-25 00:42 -24.49327 -51.66994 38113 ft 414 kts 251°
2026-04-25 00:43 -24.51349 -51.72923 38119 ft 415 kts 251°
2026-04-25 00:43 -24.53372 -51.78868 38120 ft 415 kts 251°
2026-04-25 00:44 -24.55382 -51.84783 38118 ft 413 kts 251°
2026-04-25 00:44 -24.57407 -51.90756 38118 ft 415 kts 251°
2026-04-25 00:45 -24.59412 -51.96685 38122 ft 412 kts 251°
2026-04-25 00:45 -24.61400 -52.02577 38123 ft 412 kts 251°
2026-04-25 00:46 -24.63399 -52.08511 38123 ft 412 kts 251°
2026-04-25 00:47 -24.66399 -52.17430 38117 ft 412 kts 251°
2026-04-25 00:47 -24.68384 -52.23349 38111 ft 413 kts 251°
2026-04-25 00:48 -24.70379 -52.29306 38107 ft 413 kts 251°
2026-04-25 00:48 -24.72370 -52.35254 38095 ft 413 kts 251°
2026-04-25 00:49 -24.74372 -52.41247 38090 ft 413 kts 251°
2026-04-25 00:49 -24.76361 -52.47205 38088 ft 411 kts 251°
2026-04-25 00:50 -24.78338 -52.53138 38081 ft 413 kts 251°
2026-04-25 00:50 -24.80323 -52.59104 38081 ft 412 kts 251°
2026-04-25 00:51 -24.82283 -52.64995 38080 ft 412 kts 251°
2026-04-25 00:51 -24.84263 -52.70963 38076 ft 412 kts 252°
2026-04-25 00:52 -24.86219 -52.76882 38078 ft 411 kts 252°
2026-04-25 00:52 -24.88170 -52.82809 38080 ft 409 kts 252°
2026-04-25 00:53 -24.90110 -52.88709 38062 ft 410 kts 252°
2026-04-25 00:53 -24.91083 -52.91663 37754 ft 405 kts 252°
2026-04-25 00:53 -24.92035 -52.94557 37313 ft 399 kts 252°
2026-04-25 00:53 -24.92994 -52.97473 36747 ft 400 kts 253°
2026-04-25 00:54 -24.93934 -53.00336 36126 ft 400 kts 253°
2026-04-25 00:54 -24.94886 -53.03237 35440 ft 400 kts 253°
2026-04-25 00:54 -24.95828 -53.06110 34732 ft 401 kts 253°
2026-04-25 00:54 -24.96774 -53.08998 33984 ft 402 kts 253°
2026-04-25 00:55 -24.97729 -53.11917 33216 ft 402 kts 254°
2026-04-25 00:55 -24.98669 -53.14791 32653 ft 401 kts 254°
2026-04-25 00:55 -24.99620 -53.17707 32134 ft 413 kts 254°
2026-04-25 00:55 -25.00606 -53.20747 31529 ft 424 kts 254°
2026-04-25 00:56 -25.01599 -53.23802 30911 ft 427 kts 253°
2026-04-25 00:56 -25.02597 -53.26864 30291 ft 430 kts 253°
2026-04-25 00:56 -25.03605 -53.29950 29658 ft 426 kts 253°
2026-04-25 00:56 -25.04609 -53.33020 29033 ft 422 kts 253°
2026-04-25 00:57 -25.05598 -53.36049 28401 ft 417 kts 253°
2026-04-25 00:57 -25.06565 -53.39013 27786 ft 413 kts 253°
2026-04-25 00:57 -25.07531 -53.41983 27170 ft 413 kts 253°
2026-04-25 00:57 -25.08507 -53.44992 26547 ft 419 kts 253°
2026-04-25 00:58 -25.09477 -53.47989 25914 ft 417 kts 253°
2026-04-25 00:58 -25.10442 -53.50965 25287 ft 411 kts 252°
2026-04-25 00:58 -25.11407 -53.53941 24664 ft 406 kts 253°
2026-04-25 00:58 -25.12340 -53.56821 24062 ft 401 kts 253°
2026-04-25 00:59 -25.13266 -53.59679 23454 ft 391 kts 253°
2026-04-25 00:59 -25.14171 -53.62474 22872 ft 379 kts 253°
2026-04-25 00:59 -25.15047 -53.65181 22300 ft 368 kts 253°
2026-04-25 00:59 -25.15893 -53.67800 21785 ft 358 kts 253°
2026-04-25 01:00 -25.16719 -53.70372 21258 ft 349 kts 253°
2026-04-25 01:00 -25.17509 -53.72837 20730 ft 343 kts 253°
2026-04-25 01:00 -25.18309 -53.75339 20201 ft 343 kts 253°
2026-04-25 01:00 -25.19091 -53.77789 19559 ft 340 kts 253°
2026-04-25 01:01 -25.19871 -53.80231 18952 ft 335 kts 253°
2026-04-25 01:01 -25.20636 -53.82621 18445 ft 328 kts 253°
2026-04-25 01:01 -25.21333 -53.85002 17938 ft 329 kts 257°
2026-04-25 01:01 -25.21916 -53.87475 17440 ft 336 kts 259°
2026-04-25 01:02 -25.22452 -53.89953 16935 ft 335 kts 259°
2026-04-25 01:02 -25.22993 -53.92430 16433 ft 333 kts 258°
2026-04-25 01:02 -25.23548 -53.94895 15941 ft 331 kts 258°
2026-04-25 01:02 -25.24122 -53.97378 15449 ft 329 kts 258°
2026-04-25 01:03 -25.24686 -53.99786 14966 ft 328 kts 258°
2026-04-25 01:03 -25.25263 -54.02235 14469 ft 326 kts 257°
2026-04-25 01:03 -25.25829 -54.04630 13953 ft 324 kts 257°
2026-04-25 01:03 -25.26397 -54.07035 13480 ft 316 kts 257°
2026-04-25 01:04 -25.26937 -54.09324 13062 ft 307 kts 257°
2026-04-25 01:04 -25.27468 -54.11579 12656 ft 299 kts 257°
2026-04-25 01:04 -25.27979 -54.13753 12254 ft 292 kts 257°
2026-04-25 01:04 -25.28478 -54.15883 11870 ft 285 kts 257°
2026-04-25 01:05 -25.28971 -54.17987 11505 ft 282 kts 257°
2026-04-25 01:05 -25.29465 -54.20106 11104 ft 289 kts 257°
2026-04-25 01:05 -25.29964 -54.22244 10722 ft 288 kts 257°
2026-04-25 01:05 -25.30470 -54.24407 10327 ft 288 kts 257°
2026-04-25 01:06 -25.30966 -54.26523 9944 ft 287 kts 257°
2026-04-25 01:06 -25.31465 -54.28654 9560 ft 286 kts 257°
2026-04-25 01:06 -25.31963 -54.30788 9174 ft 286 kts 257°
2026-04-25 01:06 -25.32459 -54.32915 8780 ft 286 kts 257°
2026-04-25 01:07 -25.32955 -54.35042 8395 ft 285 kts 257°
2026-04-25 01:07 -25.33445 -54.37143 8022 ft 284 kts 257°
2026-04-25 01:07 -25.33941 -54.39266 7634 ft 283 kts 257°
2026-04-25 01:07 -25.34427 -54.41357 7247 ft 282 kts 257°
2026-04-25 01:08 -25.34922 -54.43480 6883 ft 281 kts 257°
2026-04-25 01:08 -25.35404 -54.45555 6503 ft 281 kts 257°
2026-04-25 01:08 -25.35887 -54.47633 6131 ft 281 kts 257°
2026-04-25 01:08 -25.36376 -54.49740 5813 ft 278 kts 257°
2026-04-25 01:09 -25.36848 -54.51770 5687 ft 268 kts 257°
2026-04-25 01:09 -25.37296 -54.53701 5606 ft 256 kts 257°
2026-04-25 01:09 -25.37731 -54.55578 5514 ft 246 kts 257°
2026-04-25 01:09 -25.38155 -54.57392 5428 ft 237 kts 256°
2026-04-25 01:10 -25.38738 -54.59069 5338 ft 237 kts 241°
2026-04-25 01:10 -25.39910 -54.60321 5111 ft 237 kts 208°
2026-04-25 01:10 -25.41455 -54.60969 4843 ft 236 kts 198°
2026-04-25 01:10 -25.43031 -54.61510 4583 ft 234 kts 199°
2026-04-25 01:11 -25.44561 -54.62090 4335 ft 231 kts 201°
2026-04-25 01:11 -25.46055 -54.62683 4189 ft 222 kts 199°
2026-04-25 01:11 -25.47553 -54.62965 3979 ft 217 kts 176°
2026-04-25 01:11 -25.48925 -54.62379 3717 ft 214 kts 141°
2026-04-25 01:12 -25.49922 -54.61171 3401 ft 213 kts 128°
2026-04-25 01:12 -25.50868 -54.59922 3106 ft 204 kts 130°
2026-04-25 01:12 -25.51765 -54.58741 2746 ft 197 kts 128°
2026-04-25 01:12 -25.52605 -54.57618 2466 ft 186 kts 129°
2026-04-25 01:13 -25.53445 -54.56567 2240 ft 173 kts 131°
2026-04-25 01:13 -25.54220 -54.55589 2011 ft 172 kts 129°
2026-04-25 01:13 -25.55004 -54.54571 1775 ft 171 kts 130°
2026-04-25 01:13 -25.55783 -54.53592 1552 ft 169 kts 130°
2026-04-25 01:14 -25.56551 -54.52609 1332 ft 167 kts 129°
2026-04-25 01:14 -25.57303 -54.51654 1125 ft 165 kts 131°
2026-04-25 01:14 -25.58053 -54.50710 961 ft 160 kts 129°
2026-04-25 01:14 -25.58782 -54.49766 797 ft 159 kts 129°
2026-04-25 01:15 -25.59452 -54.48901 772 ft 115 kts 131°
2026-04-25 01:15 -25.59737 -54.48537 784 ft 23 kts 132°
2026-04-25 01:15 -25.59823 -54.48509 785 ft 12 kts 216°
2026-04-25 01:15 -25.59845 -54.48573 784 ft 10 kts 301°
2026-04-25 01:16 -25.59785 -54.48650 783 ft 16 kts 310°
2026-04-25 01:16 -25.59718 -54.48738 780 ft 10 kts 310°
2026-04-25 01:16 -25.59699 -54.48770 779 ft 2 kts 257°
2026-04-25 01:16 -25.59721 -54.48797 779 ft 3 kts 220°
2026-04-25 01:17 -25.59730 -54.48806 779 ft 0 kts 219°